FW6030 Weather Reports


Display with metric or nautical units.
time (UTC)temp
F
wind
direction
speed
MPH
gust
MPH
rain 1hr
in
rain 24hr
in
rain mn
in
humidity
%
barometer
mb
20260504060228 65 360 6.0 14.0 0.00 0.00 0.00 70 1017.9
20260504060149 65 360 7.0 14.0 0.00 0.00 0.00 70 1018.0
20260504050725 66 360 6.0 16.0 0.00 0.00 0.00 66 1018.3
20260504050626 66 360 6.0 16.0 0.00 0.00 0.00 66 1018.3
20260504050527 66 360 6.0 16.0 0.00 0.00 0.00 66 1018.3
20260504050427 66 360 6.0 16.0 0.00 0.00 0.00 66 1018.2
20260504050347 66 360 7.0 16.0 0.00 0.00 0.00 66 1018.2
20260504050229 66 360 7.0 16.0 0.00 0.00 0.00 66 1018.2
20260504050128 66 360 7.0 16.0 0.00 0.00 0.00 66 1018.3
20260504045921 66 360 7.0 16.0 0.00 0.00 0.00 65 1018.3
20260504045823 66 360 7.0 15.0 0.00 0.00 0.00 65 1018.4
20260504045743 66 360 7.0 15.0 0.00 0.00 0.00 65 1018.3
20260504045623 66 360 7.0 15.0 0.00 0.00 0.00 65 1018.3
20260504045523 66 360 7.0 16.0 0.00 0.00 0.00 65 1018.3
20260504045448 66 360 7.0 16.0 0.00 0.00 0.00 65 1018.3
20260504045327 66 360 7.0 21.0 0.00 0.00 0.00 65 1018.3
20260504045228 66 360 7.0 21.0 0.00 0.00 0.00 65 1018.3
20260504045128 66 360 8.0 21.0 0.00 0.00 0.00 65 1018.2
20260504045029 67 360 9.0 21.0 0.00 0.00 0.00 65 1018.2
20260504044929 67 360 9.0 21.0 0.00 0.00 0.00 65 1018.2
20260504044829 67 360 10.0 21.0 0.00 0.00 0.00 65 1018.2
20260504044754 67 360 10.0 21.0 0.00 0.00 0.00 65 1018.3
20260504044653 67 360 10.0 21.0 0.00 0.00 0.00 65 1018.2
20260504044534 67 360 9.0 21.0 0.00 0.00 0.00 65 1018.3
20260504044434 67 360 9.0 21.0 0.00 0.00 0.00 64 1018.3
20260504044334 67 360 10.0 21.0 0.00 0.00 0.00 64 1018.3
20260504044235 67 360 10.0 18.0 0.00 0.00 0.00 64 1018.2
20260504044116 67 360 9.0 18.0 0.00 0.00 0.00 64 1018.4
20260504044021 67 360 10.0 18.0 0.00 0.00 0.00 64 1018.3
20260504043920 67 360 10.0 18.0 0.00 0.00 0.00 64 1018.3
20260504043821 67 360 8.0 16.0 0.00 0.00 0.00 64 1018.3
20260504043722 67 360 8.0 16.0 0.00 0.00 0.00 64 1018.4
20260504043643 67 360 8.0 16.0 0.00 0.00 0.00 64 1018.4
20260504043521 67 360 7.0 16.0 0.00 0.00 0.00 64 1018.4
20260504043422 67 360 8.0 16.0 0.00 0.00 0.00 63 1018.4
20260504043326 67 360 8.0 16.0 0.00 0.00 0.00 63 1018.4
20260504043227 67 360 9.0 16.0 0.00 0.00 0.00 63 1018.3
20260504043128 67 360 9.0 16.0 0.00 0.00 0.00 63 1018.3
20260504043028 67 360 10.0 16.0 0.00 0.00 0.00 63 1018.3
20260504042928 67 360 9.0 15.0 0.00 0.00 0.00 63 1018.3
20260504042829 67 360 9.0 15.0 0.00 0.00 0.00 63 1018.4
20260504042731 67 360 10.0 15.0 0.00 0.00 0.00 63 1018.3
20260504042635 67 360 10.0 15.0 0.00 0.00 0.00 63 1018.4
20260504042535 67 360 10.0 16.0 0.00 0.00 0.00 63 1018.3
20260504042435 67 360 10.0 18.0 0.00 0.00 0.00 62 1018.4
20260504042356 67 360 10.0 18.0 0.00 0.00 0.00 62 1018.4
20260504042216 67 360 9.0 18.0 0.00 0.00 0.00 62 1018.4
20260504042117 67 360 9.0 18.0 0.00 0.00 0.00 62 1018.3
20260504042022 67 360 9.0 18.0 0.00 0.00 0.00 62 1018.4
20260504041922 67 360 9.0 18.0 0.00 0.00 0.00 62 1018.4
20260504041823 67 360 9.0 18.0 0.00 0.00 0.00 61 1018.4
20260504041724 67 360 9.0 18.0 0.00 0.00 0.00 61 1018.4
20260504041624 67 360 9.0 18.0 0.00 0.00 0.00 61 1018.4
20260504041525 67 360 8.0 15.0 0.00 0.00 0.00 61 1018.4
20260504041425 67 360 7.0 15.0 0.00 0.00 0.00 61 1018.5
20260504041330 67 360 6.0 15.0 0.00 0.00 0.00 61 1018.5
20260504041231 67 360 6.0 15.0 0.00 0.00 0.00 61 1018.4
20260504041132 67 360 5.0 15.0 0.00 0.00 0.00 61 1018.5
20260504041034 67 360 4.0 15.0 0.00 0.00 0.00 61 1018.5
20260504040933 67 360 4.0 15.0 0.00 0.00 0.00 61 1018.5
20260504040834 67 360 5.0 15.0 0.00 0.00 0.00 61 1018.5
20260504040738 67 360 6.0 15.0 0.00 0.00 0.00 60 1018.4
20260504040618 67 360 6.0 15.0 0.00 0.00 0.00 60 1018.4
20260504040518 67 360 7.0 15.0 0.00 0.00 0.00 60 1018.4
20260504040419 67 360 7.0 15.0 0.00 0.00 0.00 60 1018.3
20260504040319 67 360 7.0 15.0 0.00 0.00 0.00 60 1018.4
20260504040240 68 360 8.0 15.0 0.00 0.00 0.00 59 1018.4
20260504040120 68 360 8.0 15.0 0.00 0.00 0.00 59 1018.4
20260504040025 68 360 8.0 15.0 0.00 0.00 0.00 59 1018.4
20260504035925 68 360 9.0 15.0 0.00 0.00 0.00 59 1018.4
20260504035825 68 360 8.0 15.0 0.00 0.00 0.00 59 1018.4
20260504035728 68 360 8.0 15.0 0.00 0.00 0.00 59 1018.4
20260504035627 68 360 8.0 16.0 0.00 0.00 0.00 59 1018.4
20260504035546 68 360 8.0 16.0 0.00 0.00 0.00 59 1018.5
20260504035446 68 360 8.0 16.0 0.00 0.00 0.00 58 1018.5
20260504035325 68 360 7.0 16.0 0.00 0.00 0.00 58 1018.6
20260504035229 68 360 8.0 16.0 0.00 0.00 0.00 58 1018.6
20260504035131 68 360 9.0 16.0 0.00 0.00 0.00 57 1018.5
20260504035032 68 360 9.0 16.0 0.00 0.00 0.00 57 1018.6
20260504034933 68 360 8.0 16.0 0.00 0.00 0.00 57 1018.6
20260504034833 68 360 9.0 16.0 0.00 0.00 0.00 57 1018.6
20260504034734 68 360 8.0 16.0 0.00 0.00 0.00 57 1018.6
20260504034618 68 360 7.0 15.0 0.00 0.00 0.00 57 1018.6
20260504034539 68 360 7.0 20.0 0.00 0.00 0.00 57 1018.6
20260504034418 68 360 8.0 20.0 0.00 0.00 0.00 56 1018.5
20260504034319 68 360 7.0 20.0 0.00 0.00 0.00 56 1018.5
20260504034219 68 360 8.0 20.0 0.00 0.00 0.00 56 1018.4
20260504034120 68 360 9.0 20.0 0.00 0.00 0.00 56 1018.5
20260504034020 68 360 9.0 20.0 0.00 0.00 0.00 56 1018.5
20260504033922 68 360 9.0 20.0 0.00 0.00 0.00 56 1018.5
20260504033842 68 360 9.0 20.0 0.00 0.00 0.00 56 1018.5
20260504033743 68 360 8.0 20.0 0.00 0.00 0.00 55 1018.4
20260504033616 68 360 7.0 20.0 0.00 0.00 0.00 55 1018.5
20260504033517 68 360 7.0 14.0 0.00 0.00 0.00 55 1018.5
20260504033418 68 360 7.0 14.0 0.00 0.00 0.00 55 1018.4
20260504033318 68 360 6.0 14.0 0.00 0.00 0.00 55 1018.5
20260504033222 68 360 7.0 14.0 0.00 0.00 0.00 55 1018.5
20260504033123 68 360 7.0 14.0 0.00 0.00 0.00 55 1018.5
20260504033044 68 360 7.0 14.0 0.00 0.00 0.00 55 1018.5
20260504032923 68 360 7.0 14.0 0.00 0.00 0.00 55 1018.4
20260504032825 68 360 7.0 14.0 0.00 0.00 0.00 55 1018.4
20260504032724 68 360 7.0 14.0 0.00 0.00 0.00 55 1018.4
20260504032625 68 360 7.0 14.0 0.00 0.00 0.00 55 1018.4
20260504032530 68 360 7.0 11.0 0.00 0.00 0.00 55 1018.4
20260504032430 68 360 6.0 11.0 0.00 0.00 0.00 55 1018.4
20260504032331 68 360 6.0 11.0 0.00 0.00 0.00 55 1018.3
20260504032230 68 360 6.0 11.0 0.00 0.00 0.00 55 1018.3
20260504032131 68 360 6.0 11.0 0.00 0.00 0.00 54 1018.4
20260504032032 68 360 5.0 11.0 0.00 0.00 0.00 54 1018.3
20260504031954 68 360 5.0 9.0 0.00 0.00 0.00 55 1018.3
20260504031817 68 360 5.0 9.0 0.00 0.00 0.00 55 1018.2
20260504031718 68 360 4.0 8.0 0.00 0.00 0.00 55 1018.3
20260504031637 68 360 4.0 8.0 0.00 0.00 0.00 55 1018.2
20260504031517 68 360 4.0 8.0 0.00 0.00 0.00 55 1018.2
20260504031418 68 360 4.0 8.0 0.00 0.00 0.00 55 1018.3
20260504031318 68 360 4.0 8.0 0.00 0.00 0.00 54 1018.2
20260504031239 68 360 4.0 6.0 0.00 0.00 0.00 54 1018.2
20260504031121 68 360 4.0 6.0 0.00 0.00 0.00 54 1018.3
20260504031022 68 360 4.0 6.0 0.00 0.00 0.00 54 1018.3
20260504030922 68 360 3.0 6.0 0.00 0.00 0.00 54 1018.4
20260504030822 68 360 3.0 6.0 0.00 0.00 0.00 54 1018.3
20260504030722 68 360 3.0 6.0 0.00 0.00 0.00 54 1018.4
20260504030623 68 360 3.0 5.0 0.00 0.00 0.00 54 1018.3
20260504030543 68 360 3.0 6.0 0.00 0.00 0.00 54 1018.3
20260504030427 68 360 3.0 6.0 0.00 0.00 0.00 54 1018.3
20260504030327 68 360 3.0 6.0 0.00 0.00 0.00 54 1018.3
20260504030248 68 360 3.0 6.0 0.00 0.00 0.00 54 1018.3
20260504030128 68 360 3.0 6.0 0.00 0.00 0.00 54 1018.3
20260504030029 68 360 3.0 6.0 0.00 0.00 0.00 54 1018.3
20260504025947 68 360 3.0 6.0 0.00 0.00 0.00 54 1018.3
20260504025826 68 360 3.0 6.0 0.00 0.00 0.00 54 1018.3
20260504025729 68 360 3.0 6.0 0.00 0.00 0.00 54 1018.3
20260504025631 68 360 3.0 6.0 0.00 0.00 0.00 54 1018.3
20260504025552 69 360 3.0 6.0 0.00 0.00 0.00 54 1018.3
20260504025451 69 360 3.0 6.0 0.00 0.00 0.00 54 1018.3
20260504025331 69 360 3.0 6.0 0.00 0.00 0.00 53 1018.3
20260504025253 69 360 3.0 6.0 0.00 0.00 0.00 53 1018.3
20260504025132 69 360 3.0 6.0 0.00 0.00 0.00 53 1018.3
20260504025032 69 360 3.0 6.0 0.00 0.00 0.00 53 1018.4
20260504024918 69 360 3.0 6.0 0.00 0.00 0.00 53 1018.2
20260504024838 69 360 3.0 6.0 0.00 0.00 0.00 53 1018.3
20260504024717 69 360 3.0 6.0 0.00 0.00 0.00 53 1018.3
20260504024619 69 360 3.0 6.0 0.00 0.00 0.00 53 1018.3
20260504024520 69 360 3.0 6.0 0.00 0.00 0.00 53 1018.3
20260504024420 69 360 3.0 6.0 0.00 0.00 0.00 53 1018.3
20260504024321 69 360 3.0 6.0 0.00 0.00 0.00 53 1018.4
20260504024241 69 360 3.0 6.0 0.00 0.00 0.00 53 1018.3
20260504024123 69 360 3.0 6.0 0.00 0.00 0.00 53 1018.4
20260504024023 69 360 3.0 6.0 0.00 0.00 0.00 53 1018.3
20260504023923 69 360 3.0 6.0 0.00 0.00 0.00 52 1018.3
20260504023825 69 360 4.0 6.0 0.00 0.00 0.00 52 1018.2
20260504023725 69 360 3.0 6.0 0.00 0.00 0.00 53 1018.2
20260504023625 69 360 3.0 6.0 0.00 0.00 0.00 53 1018.2
20260504023529 69 360 3.0 6.0 0.00 0.00 0.00 53 1018.2
20260504023431 69 360 3.0 6.0 0.00 0.00 0.00 53 1018.2
20260504023352 69 360 3.0 6.0 0.00 0.00 0.00 53 1018.2
20260504023231 69 360 4.0 6.0 0.00 0.00 0.00 53 1018.1
20260504023130 69 360 3.0 6.0 0.00 0.00 0.00 52 1018.1
20260504023031 69 360 4.0 6.0 0.00 0.00 0.00 52 1018.2
20260504022931 69 360 4.0 8.0 0.00 0.00 0.00 52 1018.2
20260504022852 69 360 3.0 8.0 0.00 0.00 0.00 52 1018.2
20260504022753 69 360 3.0 8.0 0.00 0.00 0.00 52 1018.1
20260504022616 69 360 3.0 8.0 0.00 0.00 0.00 52 1018.2
20260504022516 69 360 3.0 8.0 0.00 0.00 0.00 52 1018.2
20260504022418 69 360 4.0 8.0 0.00 0.00 0.00 52 1018.2
20260504022318 69 360 4.0 8.0 0.00 0.00 0.00 52 1018.1
20260504022218 69 360 4.0 8.0 0.00 0.00 0.00 52 1018.2
20260504022119 69 360 4.0 8.0 0.00 0.00 0.00 52 1018.1
20260504022043 69 360 4.0 8.0 0.00 0.00 0.00 52 1018.1
20260504022004 69 360 4.0 8.0 0.00 0.00 0.00 52 1018.1
20260504021816 70 360 4.0 8.0 0.00 0.00 0.00 52 1018.1
20260504021717 70 360 4.0 6.0 0.00 0.00 0.00 53 1018.1
20260504021617 70 360 4.0 6.0 0.00 0.00 0.00 51 1018.1
20260504021518 70 360 4.0 6.0 0.00 0.00 0.00 51 1018.1
20260504021419 70 360 3.0 6.0 0.00 0.00 0.00 51 1018.2
20260504021324 70 360 3.0 6.0 0.00 0.00 0.00 51 1018.2
20260504021225 70 360 3.0 5.0 0.00 0.00 0.00 51 1018.2
20260504021125 70 360 3.0 5.0 0.00 0.00 0.00 51 1018.2
20260504021047 70 360 3.0 5.0 0.00 0.00 0.00 51 1018.2
20260504020925 70 360 3.0 5.0 0.00 0.00 0.00 51 1018.2
20260504020826 70 360 3.0 5.0 0.00 0.00 0.00 51 1018.2
20260504020726 70 360 3.0 5.0 0.00 0.00 0.00 51 1018.2
20260504020631 70 360 3.0 5.0 0.00 0.00 0.00 51 1018.1
20260504020531 70 360 3.0 5.0 0.00 0.00 0.00 51 1018.2
20260504020432 70 360 3.0 5.0 0.00 0.00 0.00 51 1018.1
20260504020332 70 360 3.0 5.0 0.00 0.00 0.00 50 1018.1
20260504020233 70 360 3.0 5.0 0.00 0.00 0.00 50 1018.1
20260504020134 70 360 3.0 5.0 0.00 0.00 0.00 50 1018.1
20260504020018 70 360 3.0 6.0 0.00 0.00 0.00 50 1018.1
20260504015919 70 360 3.0 6.0 0.00 0.00 0.00 50 1018.1
20260504015821 70 360 3.0 6.0 0.00 0.00 0.00 50 1018.1
20260504015720 70 360 3.0 6.0 0.00 0.00 0.00 50 1018.0
20260504015621 70 360 3.0 6.0 0.00 0.00 0.00 50 1018.1
20260504015522 71 360 3.0 6.0 0.00 0.00 0.00 50 1018.1
20260504015426 71 360 3.0 6.0 0.00 0.00 0.00 50 1018.1
20260504015327 71 360 3.0 6.0 0.00 0.00 0.00 50 1018.1
20260504015227 71 360 3.0 6.0 0.00 0.00 0.00 50 1018.1
20260504015127 71 360 3.0 6.0 0.00 0.00 0.00 50 1018.1
20260504015029 71 360 3.0 6.0 0.00 0.00 0.00 50 1018.1
20260504014951 71 360 3.0 6.0 0.00 0.00 0.00 50 1018.0
20260504014831 71 360 3.0 6.0 0.00 0.00 0.00 50 1018.0
20260504014716 71 360 3.0 6.0 0.00 0.00 0.00 50 1018.0
20260504014616 71 360 3.0 6.0 0.00 0.00 0.00 50 1018.0
20260504014517 71 360 3.0 5.0 0.00 0.00 0.00 50 1017.9
20260504014417 71 360 3.0 5.0 0.00 0.00 0.00 50 1017.9
20260504014318 71 360 3.0 5.0 0.00 0.00 0.00 50 1017.9
20260504014219 71 360 3.0 5.0 0.00 0.00 0.00 50 1017.8
20260504014139 71 360 3.0 5.0 0.00 0.00 0.00 50 1017.8
20260504014024 71 360 3.0 5.0 0.00 0.00 0.00 49 1017.6
20260504013925 71 360 3.0 5.0 0.00 0.00 0.00 49 1017.8
20260504013826 71 360 3.0 5.0 0.00 0.00 0.00 49 1017.8
20260504013727 71 360 4.0 6.0 0.00 0.00 0.00 49 1017.6
20260504013628 71 360 4.0 6.0 0.00 0.00 0.00 49 1017.7
20260504013528 71 360 4.0 6.0 0.00 0.00 0.00 49 1017.6
20260504013427 71 360 4.0 6.0 0.00 0.00 0.00 49 1017.7
20260504013332 71 360 4.0 6.0 0.00 0.00 0.00 49 1017.6
20260504013231 71 360 4.0 6.0 0.00 0.00 0.00 49 1017.6
20260504013132 71 360 4.0 8.0 0.00 0.00 0.00 49 1017.5
20260504013032 71 360 4.0 8.0 0.00 0.00 0.00 49 1017.6
20260504012932 71 360 4.0 8.0 0.00 0.00 0.00 49 1017.6
20260504012833 71 360 4.0 8.0 0.00 0.00 0.00 49 1017.6
20260504012733 72 360 4.0 8.0 0.00 0.00 0.00 49 1017.6
20260504012616 72 360 4.0 8.0 0.00 0.00 0.00 49 1017.6
20260504012517 72 360 4.0 8.0 0.00 0.00 0.00 48 1017.6
20260504012438 72 360 4.0 8.0 0.00 0.00 0.00 48 1017.5
20260504012317 72 360 4.0 8.0 0.00 0.00 0.00 48 1017.6
20260504012217 72 360 4.0 8.0 0.00 0.00 0.00 48 1017.6
20260504012118 72 360 4.0 8.0 0.00 0.00 0.00 48 1017.6
20260504012018 72 360 5.0 8.0 0.00 0.00 0.00 48 1017.6
20260504011923 72 360 5.0 8.0 0.00 0.00 0.00 48 1017.5
20260504011822 72 360 5.0 8.0 0.00 0.00 0.00 48 1017.5
20260504011743 72 360 5.0 8.0 0.00 0.00 0.00 48 1017.6
20260504011623 72 360 4.0 8.0 0.00 0.00 0.00 48 1017.6
20260504011524 72 360 4.0 8.0 0.00 0.00 0.00 48 1017.6
20260504011424 72 360 5.0 8.0 0.00 0.00 0.00 48 1017.6
20260504011325 72 360 4.0 8.0 0.00 0.00 0.00 48 1017.5
20260504011229 72 360 4.0 8.0 0.00 0.00 0.00 47 1017.5
20260504011129 72 360 4.0 8.0 0.00 0.00 0.00 47 1017.6
20260504011030 72 360 4.0 8.0 0.00 0.00 0.00 47 1017.6
20260504010930 72 360 4.0 8.0 0.00 0.00 0.00 47 1017.5
20260504010831 73 360 4.0 8.0 0.00 0.00 0.00 47 1017.6
20260504010752 73 360 4.0 8.0 0.00 0.00 0.00 47 1017.6
20260504010615 73 360 5.0 8.0 0.00 0.00 0.00 47 1017.7
20260504010516 73 360 5.0 9.0 0.00 0.00 0.00 47 1017.7
20260504010437 73 360 5.0 9.0 0.00 0.00 0.00 47 1017.6
20260504010336 73 360 4.0 9.0 0.00 0.00 0.00 47 1017.6
20260504010216 73 360 4.0 9.0 0.00 0.00 0.00 47 1017.6
20260504010116 73 360 4.0 9.0 0.00 0.00 0.00 47 1017.6
20260504010016 73 360 4.0 9.0 0.00 0.00 0.00 47 1017.6
20260504005922 73 360 4.0 9.0 0.00 0.00 0.00 47 1017.6
20260504005823 73 360 5.0 9.0 0.00 0.00 0.00 47 1017.6
20260504005722 73 360 5.0 9.0 0.00 0.00 0.00 46 1017.6
20260504005643 73 360 5.0 9.0 0.00 0.00 0.00 46 1017.6
20260504005522 73 360 6.0 9.0 0.00 0.00 0.00 46 1017.7
20260504005423 73 360 6.0 9.0 0.00 0.00 0.00 46 1017.7
20260504005323 73 360 6.0 9.0 0.00 0.00 0.00 46 1017.8
20260504005244 74 360 5.0 9.0 0.00 0.00 0.00 46 1017.8
20260504005127 74 360 5.0 9.0 0.00 0.00 0.00 46 1017.8
20260504005028 74 360 5.0 9.0 0.00 0.00 0.00 46 1017.8
20260504004929 74 360 5.0 12.0 0.00 0.00 0.00 46 1017.7
20260504004829 74 360 5.0 12.0 0.00 0.00 0.00 45 1017.6
20260504004729 74 360 6.0 12.0 0.00 0.00 0.00 45 1017.6
20260504004630 74 360 7.0 12.0 0.00 0.00 0.00 45 1017.6
20260504004534 74 360 7.0 12.0 0.00 0.00 0.00 45 1017.6
20260504004435 74 360 7.0 12.0 0.00 0.00 0.00 45 1017.7
20260504004355 74 360 7.0 12.0 0.00 0.00 0.00 45 1017.7
20260504004235 74 360 7.0 12.0 0.00 0.00 0.00 45 1017.5
20260504004116 74 360 7.0 14.0 0.00 0.00 0.00 45 1017.6
20260504004037 74 360 6.0 14.0 0.00 0.00 0.00 45 1017.6
20260504003936 74 360 6.0 14.0 0.00 0.00 0.00 45 1017.6
20260504003821 74 360 7.0 14.0 0.00 0.00 0.00 45 1017.6
20260504003722 74 360 7.0 14.0 0.00 0.00 0.00 45 1017.6
20260504003642 74 360 7.0 14.0 0.00 0.00 0.00 44 1017.6
20260504003604 74 360 7.0 14.0 0.00 0.00 0.00 44 1017.6
20260504003416 74 360 7.0 14.0 0.00 0.00 0.00 44 1017.7
20260504003316 74 360 7.0 14.0 0.00 0.00 0.00 44 1017.7
20260504003216 74 360 7.0 14.0 0.00 0.00 0.00 44 1017.6
20260504003121 74 360 7.0 16.0 0.00 0.00 0.00 44 1017.6
20260504003021 74 360 7.0 16.0 0.00 0.00 0.00 44 1017.6
20260504002942 74 360 7.0 16.0 0.00 0.00 0.00 44 1017.6
20260504002843 74 360 7.0 16.0 0.00 0.00 0.00 44 1017.6
20260504002716 75 360 6.0 16.0 0.00 0.00 0.00 44 1017.6
20260504002617 74 360 7.0 16.0 0.00 0.00 0.00 44 1017.7
20260504002518 75 360 7.0 16.0 0.00 0.00 0.00 44 1017.6
20260504002421 75 360 7.0 16.0 0.00 0.00 0.00 44 1017.6
20260504002322 75 360 8.0 16.0 0.00 0.00 0.00 44 1017.7
20260504002222 75 360 9.0 16.0 0.00 0.00 0.00 44 1017.8
20260504002123 75 360 9.0 16.0 0.00 0.00 0.00 44 1017.9
20260504002042 75 360 10.0 16.0 0.00 0.00 0.00 44 1017.9
20260504001916 75 360 10.0 16.0 0.00 0.00 0.00 42 1017.8
20260504001837 75 360 9.0 16.0 0.00 0.00 0.00 42 1017.9
20260504001738 75 360 9.0 16.0 0.00 0.00 0.00 42 1017.9
20260504001622 75 360 10.0 16.0 0.00 0.00 0.00 42 1018.0
20260504001522 75 360 10.0 16.0 0.00 0.00 0.00 42 1017.9
20260504001423 75 360 8.0 16.0 0.00 0.00 0.00 42 1018.0
20260504001324 75 360 7.0 16.0 0.00 0.00 0.00 42 1018.0
20260504001225 75 360 7.0 16.0 0.00 0.00 0.00 42 1017.9
20260504001124 75 360 8.0 16.0 0.00 0.00 0.00 42 1018.0
20260504001029 75 360 7.0 16.0 0.00 0.00 0.00 42 1018.0
20260504000930 75 360 8.0 16.0 0.00 0.00 0.00 42 1018.0
20260504000850 75 360 8.0 16.0 0.00 0.00 0.00 42 1018.1
20260504000729 75 360 9.0 16.0 0.00 0.00 0.00 42 1018.0
20260504000629 75 360 9.0 16.0 0.00 0.00 0.00 42 1018.0
20260504000550 75 360 10.0 15.0 0.00 0.00 0.00 42 1018.1
20260504000431 75 360 10.0 16.0 0.00 0.00 0.00 42 1018.1
20260504000349 75 360 10.0 16.0 0.00 0.00 0.00 41 1018.0
20260504000234 75 360 9.0 16.0 0.00 0.00 0.00 41 1018.0
20260504000153 75 360 9.0 16.0 0.00 0.00 0.00 41 1018.1
20260504000052 75 360 8.0 16.0 0.00 0.00 0.00 41 1018.1
20260503235953 75 360 7.0 15.0 0.00 0.00 0.00 42 1018.1
20260503235832 75 360 7.0 15.0 0.00 0.00 0.00 41 1018.2
20260503235734 75 360 7.0 13.0 0.00 0.00 0.00 42 1018.1
20260503235634 75 360 6.0 11.0 0.00 0.00 0.00 43 1018.2
20260503235534 76 360 5.0 11.0 0.00 0.00 0.00 43 1018.1
20260503235419 76 360 5.0 11.0 0.00 0.00 0.00 43 1018.2
20260503235319 76 360 5.0 11.0 0.00 0.00 0.00 41 1018.2
20260503235220 76 360 5.0 11.0 0.00 0.00 0.00 41 1018.2
20260503235140 76 360 4.0 11.0 0.00 0.00 0.00 41 1018.2
20260503235040 76 360 4.0 9.0 0.00 0.00 0.00 41 1018.2
20260503234919 76 360 4.0 8.0 0.00 0.00 0.00 41 1018.3
20260503234820 76 360 4.0 14.0 0.00 0.00 0.00 41 1018.3
20260503234724 76 360 4.0 17.0 0.00 0.00 0.00 41 1018.3
20260503234624 76 360 4.0 17.0 0.00 0.00 0.00 41 1018.4
20260503234525 76 360 5.0 17.0 0.00 0.00 0.00 41 1018.3
20260503234425 76 360 6.0 17.0 0.00 0.00 0.00 41 1018.4
20260503234325 76 360 7.0 17.0 0.00 0.00 0.00 41 1018.3
20260503234225 76 360 7.0 17.0 0.00 0.00 0.00 41 1018.3
20260503234125 76 360 8.0 17.0 0.00 0.00 0.00 40 1018.3
20260503234030 76 360 8.0 17.0 0.00 0.00 0.00 40 1018.3
20260503233930 76 360 8.0 17.0 0.00 0.00 0.00 41 1018.3
20260503233831 76 360 7.0 17.0 0.00 0.00 0.00 41 1018.3
20260503233751 76 360 7.0 17.0 0.00 0.00 0.00 41 1018.3
20260503233631 76 360 8.0 17.0 0.00 0.00 0.00 41 1018.3
20260503233531 76 360 9.0 17.0 0.00 0.00 0.00 41 1018.2
20260503233432 76 360 9.0 17.0 0.00 0.00 0.00 41 1018.2
20260503233316 76 360 9.0 17.0 0.00 0.00 0.00 41 1018.2
20260503233216 76 360 10.0 17.0 0.00 0.00 0.00 40 1018.3
20260503233137 76 360 10.0 17.0 0.00 0.00 0.00 40 1018.2
20260503233016 76 360 9.0 17.0 0.00 0.00 0.00 40 1018.3
20260503232917 76 360 9.0 17.0 0.00 0.00 0.00 40 1018.3
20260503232819 76 360 8.0 17.0 0.00 0.00 0.00 40 1018.3
20260503232739 76 360 8.0 17.0 0.00 0.00 0.00 40 1018.2
20260503232622 76 360 7.0 17.0 0.00 0.00 0.00 40 1018.2
20260503232523 76 360 8.0 17.0 0.00 0.00 0.00 40 1018.2
20260503232423 76 360 8.0 17.0 0.00 0.00 0.00 41 1018.3
20260503232323 76 360 8.0 17.0 0.00 0.00 0.00 41 1018.2
20260503232223 76 360 9.0 17.0 0.00 0.00 0.00 41 1018.2
20260503232124 76 360 9.0 17.0 0.00 0.00 0.00 40 1018.4
20260503232025 76 360 9.0 17.0 0.00 0.00 0.00 40 1018.4
20260503231949 76 360 10.0 17.0 0.00 0.00 0.00 40 1018.4
20260503231849 76 360 10.0 17.0 0.00 0.00 0.00 40 1018.4
20260503231727 76 360 9.0 17.0 0.00 0.00 0.00 40 1018.4
20260503231648 76 360 8.0 16.0 0.00 0.00 0.00 40 1018.4
20260503231527 76 360 8.0 18.0 0.00 0.00 0.00 40 1018.4
20260503231426 76 360 8.0 18.0 0.00 0.00 0.00 40 1018.3
20260503231327 76 360 8.0 18.0 0.00 0.00 0.00 40 1018.2
20260503231247 76 360 8.0 18.0 0.00 0.00 0.00 41 1018.3
20260503231125 76 360 9.0 18.0 0.00 0.00 0.00 41 1018.3
20260503231023 76 360 10.0 18.0 0.00 0.00 0.00 41 1018.3
20260503230927 76 360 11.0 18.0 0.00 0.00 0.00 40 1018.3
20260503230827 76 360 11.0 18.0 0.00 0.00 0.00 40 1018.3
20260503230727 76 360 12.0 18.0 0.00 0.00 0.00 40 1018.2
20260503230627 76 360 12.0 18.0 0.00 0.00 0.00 40 1018.3
20260503230528 76 360 12.0 18.0 0.00 0.00 0.00 39 1018.2
20260503230448 76 360 12.0 21.0 0.00 0.00 0.00 39 1018.2
20260503230348 76 360 11.0 21.0 0.00 0.00 0.00 40 1018.2
20260503230248 76 360 10.0 21.0 0.00 0.00 0.00 40 1018.2
20260503230132 76 360 9.0 21.0 0.00 0.00 0.00 40 1018.1
20260503230031 76 360 9.0 21.0 0.00 0.00 0.00 39 1018.1
20260503225932 76 360 9.0 21.0 0.00 0.00 0.00 40 1018.1
20260503225832 76 360 9.0 21.0 0.00 0.00 0.00 40 1018.1
20260503225733 76 360 9.0 21.0 0.00 0.00 0.00 39 1018.2
20260503225633 76 360 9.0 21.0 0.00 0.00 0.00 39 1018.1
20260503225518 76 360 9.0 21.0 0.00 0.00 0.00 39 1018.2
20260503225418 76 360 10.0 21.0 0.00 0.00 0.00 39 1018.2
20260503225318 76 360 10.0 19.0 0.00 0.00 0.00 39 1018.2
20260503225219 76 360 10.0 19.0 0.00 0.00 0.00 39 1018.2
20260503225119 76 360 10.0 19.0 0.00 0.00 0.00 39 1018.2
20260503225040 76 360 9.0 19.0 0.00 0.00 0.00 38 1018.2
20260503224920 76 360 10.0 19.0 0.00 0.00 0.00 38 1018.2
20260503224843 76 360 11.0 19.0 0.00 0.00 0.00 39 1018.2
20260503224723 76 360 10.0 18.0 0.00 0.00 0.00 39 1018.2
20260503224623 77 360 10.0 18.0 0.00 0.00 0.00 39 1018.3
20260503224544 76 360 9.0 18.0 0.00 0.00 0.00 39 1018.3
20260503224423 76 360 9.0 18.0 0.00 0.00 0.00 39 1018.4
20260503224323 76 360 9.0 18.0 0.00 0.00 0.00 39 1018.4
20260503224224 77 360 9.0 18.0 0.00 0.00 0.00 39 1018.5
20260503224130 77 360 8.0 18.0 0.00 0.00 0.00 39 1018.5
20260503224029 77 360 8.0 17.0 0.00 0.00 0.00 39 1018.4
20260503223930 77 360 8.0 17.0 0.00 0.00 0.00 39 1018.4
20260503223830 77 360 9.0 19.0 0.00 0.00 0.00 39 1018.4
20260503223731 77 360 10.0 19.0 0.00 0.00 0.00 39 1018.4
20260503223631 77 360 10.0 19.0 0.00 0.00 0.00 39 1018.5
20260503223532 77 360 11.0 19.0 0.00 0.00 0.00 39 1018.5
20260503223416 77 360 11.0 19.0 0.00 0.00 0.00 39 1018.5
20260503223336 77 360 11.0 19.0 0.00 0.00 0.00 39 1018.5
20260503223216 77 360 327.0 19.0 0.00 0.00 0.00 39 1018.6
20260503223116 77 360 327.0 19.0 0.00 0.00 0.00 38 1018.6
20260503223017 77 360 327.0 19.0 0.00 0.00 0.00 38 1018.7
20260503222918 77 360 327.0 15.0 0.00 0.00 0.00 38 1018.6
20260503222823 77 360 327.0 15.0 0.00 0.00 0.00 38 1018.7
20260503222723 77 360 327.0 15.0 0.00 0.00 0.00 38 1018.7
20260503222622 77 360 327.0 15.0 0.00 0.00 0.00 1018.6
20260503222523 77 360 327.0 15.0 0.00 0.00 0.00 1018.6
20260503222427 78 360 327.0 15.0 0.00 0.00 0.00 1018.8
20260503222324 0 0.0 0.0 0.00 0.00 0.00 1018.7
20260503222226 0 0.0 0.0 0.00 0.00 0.00 1018.8
20260503222114 0 0.0 0.0 0.00 0.00 0.00 1018.7
20260503222017 0 0.0 0.0 0.00 0.00 0.00 1018.6
20260503221940 0 0.0 0.0 0.00 0.00 0.00 1018.7
20260503221822 0 0.0 0.0 0.00 0.00 0.00 1018.7
20260503221747 0 0.0 0.0 0.00 0.00 0.00 1018.8
20260503221629 0 0.0 0.0 0.00 0.00 0.00 1018.7
20260503221515 0 0.0 0.0 0.00 0.00 0.00 1018.8
20260503221419 0 0.0 0.0 0.00 0.00 0.00 1018.7
20260503221322 0 0.0 0.0 0.00 0.00 0.00 1018.7
20260503221225 0 0.0 0.0 0.00 0.00 0.00 1018.7
20260503221128 0 0.0 0.0 0.00 0.00 0.00 1018.8
20260503221031 0 0.0 0.0 0.00 0.00 0.00 1018.8
20260503220935 0 0.0 0.0 0.00 0.00 0.00 1018.8
20260503220903 0 0.0 0.0 0.00 0.00 0.00 1018.9
20260503220828 0 0.0 0.0 0.00 0.00 0.00 1018.8
20260503220731 0 0.0 0.0 0.00 0.00 0.00 1018.8
20260503220558 0 0.0 0.0 0.00 0.00 0.00 1018.9
20260503220413 0 0.0 0.0 0.00 0.00 0.00 1019.0
20260503220316 0 0.0 0.0 0.00 0.00 0.00 1019.0
20260503220220 0 0.0 0.0 0.00 0.00 0.00 1019.0
20260503220124 0 0.0 0.0 0.00 0.00 0.00 1019.0
20260503220029 0 0.0 0.0 0.00 0.00 0.00 1019.0
20260503215913 0 0.0 0.0 0.00 0.00 0.00 1019.1
20260503215838 0 0.0 0.0 0.00 0.00 0.00 1019.1
20260503215720 0 0.0 0.0 0.00 0.00 0.00 1019.1
20260503215622 0 0.0 0.0 0.00 0.00 0.00 1019.1
20260503215526 0 0.0 0.0 0.00 0.00 0.00 1019.1
20260503215413 0 0.0 0.0 0.00 0.00 0.00 1019.1
20260503215317 0 0.0 0.0 0.00 0.00 0.00 1019.2
20260503215221 0 0.0 0.0 0.00 0.00 0.00 1019.1
20260503215125 0 0.0 0.0 0.00 0.00 0.00 1019.1
20260503215028 0 0.0 0.0 0.00 0.00 0.00 1019.2
20260503214932 0 0.0 0.0 0.00 0.00 0.00 1019.1
20260503214814 0 0.0 0.0 0.00 0.00 0.00 1019.2
20260503214722 0 0.0 0.0 0.00 0.00 0.00 1019.2
20260503214626 0 0.0 0.0 0.00 0.00 0.00 1019.1
20260503214529 0 0.0 0.0 0.00 0.00 0.00 1019.1
20260503214432 0 0.0 0.0 0.00 0.00 0.00 1019.1
20260503214316 0 0.0 0.0 0.00 0.00 0.00 1018.9
20260503214220 0 0.0 0.0 0.00 0.00 0.00 1019.1
20260503214127 0 0.0 0.0 0.00 0.00 0.00 1019.1
20260503214051 0 0.0 0.0 0.00 0.00 0.00 1019.1
20260503213933 0 0.0 0.0 0.00 0.00 0.00 1019.1
20260503213816 0 0.0 0.0 0.00 0.00 0.00 1019.3
20260503213719 0 0.0 0.0 0.00 0.00 0.00 1019.3
20260503213643 0 0.0 0.0 0.00 0.00 0.00 1019.3
20260503213526 0 0.0 0.0 0.00 0.00 0.00 1019.3
20260503213413 0 0.0 0.0 0.00 0.00 0.00 1019.3
20260503213317 0 0.0 0.0 0.00 0.00 0.00 1019.3
20260503213221 0 0.0 0.0 0.00 0.00 0.00 1019.4
20260503213144 0 0.0 0.0 0.00 0.00 0.00 1019.4
20260503213014 0 0.0 0.0 0.00 0.00 0.00 1019.3
20260503212916 0 0.0 0.0 0.00 0.00 0.00 1019.4
20260503212839 0 0.0 0.0 0.00 0.00 0.00 1019.4
20260503212728 0 0.0 0.0 0.00 0.00 0.00 1019.4
20260503212630 0 0.0 0.0 0.00 0.00 0.00 1019.4
20260503212535 0 0.0 0.0 0.00 0.00 0.00 1019.5
20260503212459 0 0.0 0.0 0.00 0.00 0.00 1019.4
20260503212340 0 0.0 0.0 0.00 0.00 0.00 1019.4
20260503212215 0 0.0 0.0 0.00 0.00 0.00 1019.5
20260503212119 0 0.0 0.0 0.00 0.00 0.00 1019.6
20260503212027 0 0.0 0.0 0.00 0.00 0.00 1019.6
20260503211929 0 0.0 0.0 0.00 0.00 0.00 1019.5
20260503211853 0 0.0 0.0 0.00 0.00 0.00 1019.5
20260503211756 0 0.0 0.0 0.00 0.00 0.00 1019.6
20260503211659 0 0.0 0.0 0.00 0.00 0.00 1019.5
20260503211513 0 0.0 0.0 0.00 0.00 0.00 1019.6
20260503211417 0 0.0 0.0 0.00 0.00 0.00 1019.7
20260503211320 0 0.0 0.0 0.00 0.00 0.00 1019.7
20260503211228 0 0.0 0.0 0.00 0.00 0.00 1019.7
20260503211130 0 0.0 0.0 0.00 0.00 0.00 1019.7
20260503211014 0 0.0 0.0 0.00 0.00 0.00 1019.7
20260503210916 0 0.0 0.0 0.00 0.00 0.00 1019.7
20260503210820 0 0.0 0.0 0.00 0.00 0.00 1019.8
20260503210724 0 0.0 0.0 0.00 0.00 0.00 1019.8
20260503210631 0 0.0 0.0 0.00 0.00 0.00 1019.8
20260503210515 0 0.0 0.0 0.00 0.00 0.00 1019.9
20260503210419 0 0.0 0.0 0.00 0.00 0.00 1019.9
20260503210321 0 0.0 0.0 0.00 0.00 0.00 1019.9
20260503210224 0 0.0 0.0 0.00 0.00 0.00 1019.9
20260503210128 0 0.0 0.0 0.00 0.00 0.00 1019.9
20260503210036 0 0.0 0.0 0.00 0.00 0.00 1019.9
20260503210000 0 0.0 0.0 0.00 0.00 0.00 1019.9
20260503205836 0 0.0 0.0 0.00 0.00 0.00 1020.0
20260503205740 0 0.0 0.0 0.00 0.00 0.00 1020.0
20260503205615 0 0.0 0.0 0.00 0.00 0.00 1020.1
20260503205539 0 0.0 0.0 0.00 0.00 0.00 1020.2
20260503205420 0 0.0 0.0 0.00 0.00 0.00 1020.2
20260503205328 0 0.0 0.0 0.00 0.00 0.00 1020.2
20260503205231 0 0.0 0.0 0.00 0.00 0.00 1020.3
20260503205155 0 0.0 0.0 0.00 0.00 0.00 1020.2
20260503205058 0 0.0 0.0 0.00 0.00 0.00 1020.2
20260503204913 0 0.0 0.0 0.00 0.00 0.00 1020.2
20260503204816 0 0.0 0.0 0.00 0.00 0.00 1020.3
20260503204721 0 0.0 0.0 0.00 0.00 0.00 1020.2
20260503204628 0 0.0 0.0 0.00 0.00 0.00 1020.2
20260503204531 0 0.0 0.0 0.00 0.00 0.00 1020.3
20260503204454 0 0.0 0.0 0.00 0.00 0.00 1020.2
20260503204357 0 0.0 0.0 0.00 0.00 0.00 1020.2
20260503204300 0 0.0 0.0 0.00 0.00 0.00 1020.3
20260503204029 0 0.0 0.0 0.00 0.00 0.00 1020.2
20260503203931 0 0.0 0.0 0.00 0.00 0.00 1020.3
20260503203819 0 0.0 0.0 0.00 0.00 0.00 1020.3
20260503203724 0 0.0 0.0 0.00 0.00 0.00 1020.3
20260503203626 0 0.0 0.0 0.00 0.00 0.00 1020.4
20260503203530 0 0.0 0.0 0.00 0.00 0.00 1020.2
20260503203432 0 0.0 0.0 0.00 0.00 0.00 1020.4
20260503203316 0 0.0 0.0 0.00 0.00 0.00 1020.5
20260503203224 0 0.0 0.0 0.00 0.00 0.00 1020.5
20260503203147 0 0.0 0.0 0.00 0.00 0.00 1020.5
20260503203030 0 0.0 0.0 0.00 0.00 0.00 1020.6
20260503202914 0 0.0 0.0 0.00 0.00 0.00 1020.5
20260503202839 0 0.0 0.0 0.00 0.00 0.00 1020.6
20260503202720 0 0.0 0.0 0.00 0.00 0.00 1020.6
20260503202623 0 0.0 0.0 0.00 0.00 0.00 1020.6
20260503202531 0 0.0 0.0 0.00 0.00 0.00 1020.7
20260503202435 0 0.0 0.0 0.00 0.00 0.00 1020.6
20260503202332 0 0.0 0.0 0.00 0.00 0.00 1020.7
20260503202215 0 0.0 0.0 0.00 0.00 0.00 1020.7
20260503202119 0 0.0 0.0 0.00 0.00 0.00 1020.7
20260503202021 0 0.0 0.0 0.00 0.00 0.00 1020.7
20260503201929 0 0.0 0.0 0.00 0.00 0.00 1020.7
20260503201813 0 0.0 0.0 0.00 0.00 0.00 1020.7
20260503201716 0 0.0 0.0 0.00 0.00 0.00 1020.7
20260503201620 0 0.0 0.0 0.00 0.00 0.00 1020.7
20260503201524 0 0.0 0.0 0.00 0.00 0.00 1020.7
20260503201426 0 0.0 0.0 0.00 0.00 0.00 1020.8
20260503201314 0 0.0 0.0 0.00 0.00 0.00 1020.7
20260503201217 0 0.0 0.0 0.00 0.00 0.00 1020.8
20260503201141 0 0.0 0.0 0.00 0.00 0.00 1020.8
20260503201024 0 0.0 0.0 0.00 0.00 0.00 1020.8
20260503200927 0 0.0 0.0 0.00 0.00 0.00 1020.8
20260503200831 0 0.0 0.0 0.00 0.00 0.00 1020.7
20260503200713 0 0.0 0.0 0.00 0.00 0.00 1020.7
20260503200613 0 0.0 0.0 0.00 0.00 0.00 1020.7
20260503200537 0 0.0 0.0 0.00 0.00 0.00 1020.7
20260503200413 0 0.0 0.0 0.00 0.00 0.00 1020.7
20260503200337 0 0.0 0.0 0.00 0.00 0.00 1020.7
20260503200213 0 0.0 0.0 0.00 0.00 0.00 1020.8
20260503200117 0 0.0 0.0 0.00 0.00 0.00 1020.8
20260503200019 0 0.0 0.0 0.00 0.00 0.00 1020.9
20260503195926 0 0.0 0.0 0.00 0.00 0.00 1020.9
20260503195849 0 0.0 0.0 0.00 0.00 0.00 1021.0
20260503195752 0 0.0 0.0 0.00 0.00 0.00 1021.0
20260503195614 0 0.0 0.0 0.00 0.00 0.00 1021.2
20260503195517 0 0.0 0.0 0.00 0.00 0.00 1021.2
20260503195420 0 0.0 0.0 0.00 0.00 0.00 1021.2
20260503195324 0 0.0 0.0 0.00 0.00 0.00 1021.2
20260503195232 0 0.0 0.0 0.00 0.00 0.00 1021.2
20260503195135 0 0.0 0.0 0.00 0.00 0.00 1021.2
20260503195025 78 360 6.0 16.0 0.00 0.00 0.00 39 1021.2
20260503194454 78 360 6.0 16.0 0.00 0.00 0.00 39 1021.1
20260503194222 78 360 6.0 16.0 0.00 0.00 0.00 39 1021.2
20260503194127 78 360 6.0 16.0 0.00 0.00 0.00 39 1021.2
20260503194028 78 360 6.0 16.0 0.00 0.00 0.00 39 1021.3
20260503193928 78 360 6.0 16.0 0.00 0.00 0.00 39 1021.3
20260503193828 78 360 6.0 16.0 0.00 0.00 0.00 39 1021.2
20260503193729 78 360 6.0 16.0 0.00 0.00 0.00 37 1021.2
20260503193629 77 360 7.0 18.0 0.00 0.00 0.00 37 1021.2
20260503193550 77 360 7.0 18.0 0.00 0.00 0.00 37 1021.2
20260503193433 77 360 7.0 18.0 0.00 0.00 0.00 37 1021.2
20260503193333 77 360 8.0 18.0 0.00 0.00 0.00 37 1021.3
20260503193233 77 360 8.0 18.0 0.00 0.00 0.00 37 1021.2
20260503193134 77 360 9.0 18.0 0.00 0.00 0.00 39 1021.3
20260503193055 77 360 9.0 18.0 0.00 0.00 0.00 39 1021.4
20260503192954 77 360 9.0 18.0 0.00 0.00 0.00 39 1021.4
20260503192834 77 360 8.0 18.0 0.00 0.00 0.00 39 1021.3
20260503192756 77 360 8.0 21.0 0.00 0.00 0.00 39 1021.4
20260503192529 77 360 8.0 21.0 0.00 0.00 0.00 39 1021.4
20260503192430 77 360 8.0 21.0 0.00 0.00 0.00 39 1021.5
20260503192331 77 360 8.0 21.0 0.00 0.00 0.00 39 1021.5
20260503192231 77 360 7.0 21.0 0.00 0.00 0.00 39 1021.4
20260503192151 77 360 7.0 21.0 0.00 0.00 0.00 39 1021.4
20260503192031 78 360 7.0 21.0 0.00 0.00 0.00 39 1021.5
20260503191952 78 360 7.0 16.0 0.00 0.00 0.00 39 1021.5
20260503191831 78 360 6.0 16.0 0.00 0.00 0.00 39 1021.5
20260503191735 78 360 6.0 16.0 0.00 0.00 0.00 39 1021.4
20260503191636 78 360 6.0 15.0 0.00 0.00 0.00 40 1021.5
20260503191535 77 360 8.0 15.0 0.00 0.00 0.00 40 1021.5
20260503191416 77 360 9.0 17.0 0.00 0.00 0.00 38 1021.4
20260503191337 77 360 9.0 17.0 0.00 0.00 0.00 38 1021.5
20260503191217 77 360 9.0 17.0 0.00 0.00 0.00 36 1021.5
20260503191117 78 360 8.0 17.0 0.00 0.00 0.00 36 1021.5
20260503191040 78 360 9.0 17.0 0.00 0.00 0.00 36 1021.6
20260503190921 78 360 8.0 17.0 0.00 0.00 0.00 37 1021.6
20260503190822 78 360 8.0 18.0 0.00 0.00 0.00 38 1021.6
20260503190742 78 360 8.0 18.0 0.00 0.00 0.00 38 1021.6
20260503190621 78 360 8.0 18.0 0.00 0.00 0.00 38 1021.7
20260503190521 78 360 8.0 18.0 0.00 0.00 0.00 36 1021.6
20260503190421 78 360 8.0 18.0 0.00 0.00 0.00 36 1021.7
20260503190322 77 360 8.0 18.0 0.00 0.00 0.00 36 1021.7
20260503190226 77 360 7.0 18.0 0.00 0.00 0.00 36 1021.7
20260503190127 77 360 8.0 18.0 0.00 0.00 0.00 36 1021.7
20260503190026 77 360 8.0 18.0 0.00 0.00 0.00 36 1021.9
20260503185926 77 360 9.0 19.0 0.00 0.00 0.00 37 1021.8
20260503185827 77 360 9.0 19.0 0.00 0.00 0.00 37 1021.7
20260503185728 77 360 9.0 19.0 0.00 0.00 0.00 37 1021.7
20260503185628 77 360 8.0 19.0 0.00 0.00 0.00 37 1021.8
20260503185533 77 360 8.0 19.0 0.00 0.00 0.00 37 1022.0
20260503185432 77 360 8.0 19.0 0.00 0.00 0.00 37 1021.9
20260503185333 77 360 8.0 19.0 0.00 0.00 0.00 37 1021.9
20260503185234 77 360 8.0 19.0 0.00 0.00 0.00 37 1021.9
20260503185134 77 360 8.0 19.0 0.00 0.00 0.00 38 1021.9
20260503185034 77 360 7.0 19.0 0.00 0.00 0.00 38 1022.0
20260503184918 77 360 7.0 19.0 0.00 0.00 0.00 38 1022.0
20260503184819 77 360 6.0 19.0 0.00 0.00 0.00 35 1022.0
20260503184739 77 360 6.0 15.0 0.00 0.00 0.00 35 1022.0
20260503184619 77 360 6.0 15.0 0.00 0.00 0.00 35 1022.0
20260503184520 77 360 6.0 15.0 0.00 0.00 0.00 35 1022.1
20260503184421 77 360 5.0 15.0 0.00 0.00 0.00 35 1022.1
20260503184322 77 360 5.0 15.0 0.00 0.00 0.00 37 1022.1
20260503184241 77 360 5.0 15.0 0.00 0.00 0.00 37 1022.2
20260503184145 77 360 6.0 15.0 0.00 0.00 0.00 37 1022.1
20260503184024 78 360 6.0 15.0 0.00 0.00 0.00 36 1022.1
20260503183924 78 360 7.0 15.0 0.00 0.00 0.00 37 1022.2
20260503183827 78 360 7.0 15.0 0.00 0.00 0.00 37 1022.2
20260503183727 78 360 7.0 15.0 0.00 0.00 0.00 37 1022.2
20260503183648 78 360 8.0 15.0 0.00 0.00 0.00 37 1022.1
20260503183528 78 360 8.0 15.0 0.00 0.00 0.00 37 1022.2
20260503183432 78 360 9.0 15.0 0.00 0.00 0.00 37 1022.1
20260503183332 78 360 9.0 15.0 0.00 0.00 0.00 35 1022.2
20260503183231 78 360 9.0 15.0 0.00 0.00 0.00 35 1022.2
20260503183132 77 360 9.0 15.0 0.00 0.00 0.00 35 1022.2
20260503183032 77 360 10.0 15.0 0.00 0.00 0.00 37 1022.2
20260503182933 77 360 9.0 15.0 0.00 0.00 0.00 37 1022.3
20260503182834 77 360 9.0 15.0 0.00 0.00 0.00 37 1022.3
20260503182718 77 360 9.0 15.0 0.00 0.00 0.00 37 1022.3
20260503182638 77 360 8.0 15.0 0.00 0.00 0.00 37 1022.4
20260503182519 77 360 8.0 15.0 0.00 0.00 0.00 37 1022.5
20260503182419 77 360 7.0 18.0 0.00 0.00 0.00 37 1022.5
20260503182321 77 360 7.0 18.0 0.00 0.00 0.00 37 1022.5
20260503182240 77 360 7.0 18.0 0.00 0.00 0.00 37 1022.6
20260503182120 77 360 7.0 18.0 0.00 0.00 0.00 37 1022.5
20260503182024 77 360 7.0 18.0 0.00 0.00 0.00 37 1022.5
20260503181925 77 360 7.0 18.0 0.00 0.00 0.00 37 1022.5
20260503181825 76 360 7.0 18.0 0.00 0.00 0.00 36 1022.5
20260503181725 76 360 8.0 18.0 0.00 0.00 0.00 36 1022.5
20260503181625 76 360 9.0 22.0 0.00 0.00 0.00 37 1022.5
20260503181526 77 360 9.0 22.0 0.00 0.00 0.00 37 1022.5
20260503181447 77 360 9.0 22.0 0.00 0.00 0.00 37 1022.6
20260503181330 77 360 9.0 22.0 0.00 0.00 0.00 38 1022.5
20260503181231 77 360 9.0 22.0 0.00 0.00 0.00 38 1022.5
20260503181151 77 360 10.0 22.0 0.00 0.00 0.00 38 1022.5
20260503181031 77 360 9.0 22.0 0.00 0.00 0.00 37 1022.5
20260503180930 77 360 9.0 22.0 0.00 0.00 0.00 37 1022.5
20260503180830 77 360 9.0 20.0 0.00 0.00 0.00 37 1022.6
20260503180731 77 360 9.0 20.0 0.00 0.00 0.00 37 1022.6
20260503180651 77 360 9.0 20.0 0.00 0.00 0.00 38 1022.6
20260503180535 77 360 9.0 20.0 0.00 0.00 0.00 38 1022.6
20260503180435 77 360 10.0 20.0 0.00 0.00 0.00 38 1022.7
20260503180356 77 360 10.0 20.0 0.00 0.00 0.00 37 1022.6
20260503180255 77 360 10.0 20.0 0.00 0.00 0.00 37 1022.7
20260503180135 77 360 9.0 20.0 0.00 0.00 0.00 37 1022.8
20260503180055 77 360 8.0 21.0 0.00 0.00 0.00 38 1022.8
20260503175955 77 360 7.0 21.0 0.00 0.00 0.00 38 1022.8
20260503175834 77 360 7.0 21.0 0.00 0.00 0.00 38 1022.9
20260503175718 77 360 6.0 21.0 0.00 0.00 0.00 38 1022.9
20260503175619 77 360 4.0 21.0 0.00 0.00 0.00 37 1023.0
20260503175519 77 360 6.0 21.0 0.00 0.00 0.00 37 1023.0
20260503175420 77 360 7.0 21.0 0.00 0.00 0.00 37 1023.1
20260503175320 77 360 8.0 21.0 0.00 0.00 0.00 37 1023.1
20260503175221 77 360 9.0 21.0 0.00 0.00 0.00 39 1023.2
20260503175122 77 360 10.0 21.0 0.00 0.00 0.00 38 1023.1
20260503175046 76 360 11.0 21.0 0.00 0.00 0.00 37 1023.2
20260503174926 76 360 11.0 21.0 0.00 0.00 0.00 37 1023.2
20260503174826 77 360 11.0 21.0 0.00 0.00 0.00 37 1023.2
20260503174746 77 360 11.0 18.0 0.00 0.00 0.00 39 1023.1
20260503174624 77 360 11.0 18.0 0.00 0.00 0.00 39 1023.1
20260503174525 77 360 9.0 18.0 0.00 0.00 0.00 39 1023.1
20260503174426 77 360 9.0 18.0 0.00 0.00 0.00 38 1023.1
20260503174326 77 360 7.0 15.0 0.00 0.00 0.00 38 1023.0
20260503174231 77 360 6.0 15.0 0.00 0.00 0.00 38 1023.2
20260503174151 77 360 5.0 14.0 0.00 0.00 0.00 39 1023.2
20260503174031 77 360 6.0 14.0 0.00 0.00 0.00 39 1023.2
20260503173930 77 360 5.0 14.0 0.00 0.00 0.00 39 1023.3
20260503173831 77 360 5.0 21.0 0.00 0.00 0.00 38 1023.2
20260503173732 77 360 4.0 21.0 0.00 0.00 0.00 38 1023.3
20260503173652 77 360 6.0 21.0 0.00 0.00 0.00 38 1023.3
20260503173536 77 360 7.0 21.0 0.00 0.00 0.00 38 1023.3
20260503173434 77 360 7.0 21.0 0.00 0.00 0.00 38 1023.3
20260503173335 77 360 6.0 21.0 0.00 0.00 0.00 40 1023.4
20260503173235 76 360 6.0 21.0 0.00 0.00 0.00 39 1023.3
20260503173135 76 360 6.0 21.0 0.00 0.00 0.00 39 1023.3
20260503173016 76 360 327.0 21.0 0.00 0.00 0.00 39 1023.2
20260503172917 76 360 327.0 16.0 0.00 0.00 0.00 39 1023.2
20260503172822 76 360 327.0 16.0 0.00 0.00 0.00 39 1023.1
20260503172721 76 360 327.0 16.0 0.00 0.00 0.00 39 1023.2
20260503172622 76 360 327.0 16.0 0.00 0.00 0.00 37 1023.2
20260503172543 76 360 327.0 16.0 0.00 0.00 0.00 37 1023.2
20260503172503 76 360 327.0 16.0 0.00 0.00 0.00 37 1023.3
20260503172227 0 0.0 0.0 0.00 0.00 0.00 1023.4
20260503172115 0 0.0 0.0 0.00 0.00 0.00 1023.4
20260503172019 0 0.0 0.0 0.00 0.00 0.00 1023.4
20260503171942 0 0.0 0.0 0.00 0.00 0.00 1023.4
20260503171844 0 0.0 0.0 0.00 0.00 0.00 1023.4
20260503171727 0 0.0 0.0 0.00 0.00 0.00 1023.6
20260503171631 0 0.0 0.0 0.00 0.00 0.00 1023.4
20260503171514 0 0.0 0.0 0.00 0.00 0.00 1023.4
20260503171423 0 0.0 0.0 0.00 0.00 0.00 1023.4
20260503171345 0 0.0 0.0 0.00 0.00 0.00 1023.5
20260503171228 0 0.0 0.0 0.00 0.00 0.00 1023.6
20260503171132 0 0.0 0.0 0.00 0.00 0.00 1023.6
20260503171016 0 0.0 0.0 0.00 0.00 0.00 1023.6
20260503170920 0 0.0 0.0 0.00 0.00 0.00 1023.6
20260503170822 0 0.0 0.0 0.00 0.00 0.00 1023.6
20260503170728 0 0.0 0.0 0.00 0.00 0.00 1023.6
20260503170632 0 0.0 0.0 0.00 0.00 0.00 1023.7
20260503170528 0 0.0 0.0 0.00 0.00 0.00 1023.6
20260503170432 0 0.0 0.0 0.00 0.00 0.00 1023.6
20260503170336 0 0.0 0.0 0.00 0.00 0.00 1023.6
20260503170219 0 0.0 0.0 0.00 0.00 0.00 1023.6
20260503170124 0 0.0 0.0 0.00 0.00 0.00 1023.6
20260503160213 0 0.0 0.0 0.00 0.00 0.00 1024.3
20260503160136 0 0.0 0.0 0.00 0.00 0.00 1024.3
20260503150943 0 0.0 0.0 0.00 0.00 0.00 1024.2
20260503150826 0 0.0 0.0 0.00 0.00 0.00 1024.3
20260503150728 0 0.0 0.0 0.00 0.00 0.00 1024.2
20260503150636 0 0.0 0.0 0.00 0.00 0.00 1024.3
20260503150600 0 0.0 0.0 0.00 0.00 0.00 1024.2
20260503150415 0 0.0 0.0 0.00 0.00 0.00 1024.2
20260503150318 0 0.0 0.0 0.00 0.00 0.00 1024.1
20260503150221 0 0.0 0.0 0.00 0.00 0.00 1024.1
20260503150124 0 0.0 0.0 0.00 0.00 0.00 1024.1
20260503140225 0 0.0 0.0 0.00 0.00 0.00 1023.9
20260503140149 0 0.0 0.0 0.00 0.00 0.00 1023.9
20260503131330 59 360 1.0 3.0 0.00 0.00 0.00 76 1023.7
20260503131231 59 360 2.0 4.0 0.00 0.00 0.00 76 1023.6
20260503131136 59 360 2.0 4.0 0.00 0.00 0.00 76 1023.7
20260503131037 59 360 2.0 4.0 0.00 0.00 0.00 76 1023.7
20260503130935 58 360 2.0 4.0 0.00 0.00 0.00 76 1023.7
20260503130816 58 360 2.0 4.0 0.00 0.00 0.00 77 1023.6
20260503130717 58 360 2.0 4.0 0.00 0.00 0.00 77 1023.6
20260503130616 58 360 2.0 4.0 0.00 0.00 0.00 77 1023.6
20260503130521 57 360 2.0 4.0 0.00 0.00 0.00 77 1023.6
20260503130441 57 360 2.0 4.0 0.00 0.00 0.00 78 1023.6
20260503130321 57 360 2.0 4.0 0.00 0.00 0.00 78 1023.6
20260503130241 57 360 2.0 4.0 0.00 0.00 0.00 78 1023.6
20260503130120 57 360 2.0 4.0 0.00 0.00 0.00 78 1023.6
20260503120127 50 360 2.0 3.0 0.00 0.00 0.00 85 1023.2
20260503110734 52 360 2.0 3.0 0.00 0.00 0.00 82 1022.7
20260503110634 52 360 2.0 3.0 0.00 0.00 0.00 83 1022.8
20260503110535 52 360 2.0 3.0 0.00 0.00 0.00 83 1022.7
20260503110434 52 360 1.0 3.0 0.00 0.00 0.00 83 1022.7
20260503110335 52 360 1.0 2.0 0.00 0.00 0.00 83 1022.6
20260503110216 52 360 1.0 2.0 0.00 0.00 0.00 83 1022.6
20260503110120 52 360 0.0 2.0 0.00 0.00 0.00 83 1022.6
20260503100219 53 360 2.0 4.0 0.00 0.00 0.00 84 1022.1
20260503100120 53 360 2.0 4.0 0.00 0.00 0.00 84 1022.1
20260503090419 52 360 1.0 2.0 0.00 0.00 0.00 83 1022.2
20260503090320 52 360 1.0 3.0 0.00 0.00 0.00 83 1022.2
20260503090221 52 360 1.0 3.0 0.00 0.00 0.00 83 1022.2
20260503090142 52 360 1.0 3.0 0.00 0.00 0.00 83 1022.2
20260503081629 54 360 2.0 3.0 0.00 0.00 0.00 78 1022.2
20260503081530 54 360 2.0 3.0 0.00 0.00 0.00 78 1022.3
20260503081430 54 360 2.0 3.0 0.00 0.00 0.00 78 1022.3
20260503081330 54 360 2.0 2.0 0.00 0.00 0.00 77 1022.3
20260503081230 55 360 2.0 2.0 0.00 0.00 0.00 77 1022.3
20260503081151 55 360 2.0 2.0 0.00 0.00 0.00 77 1022.3
20260503081030 55 360 2.0 2.0 0.00 0.00 0.00 77 1022.2
20260503080935 55 360 2.0 2.0 0.00 0.00 0.00 77 1022.2
20260503080835 55 360 1.0 2.0 0.00 0.00 0.00 77 1022.2
20260503080755 55 360 1.0 2.0 0.00 0.00 0.00 77 1022.1
20260503080634 55 360 1.0 2.0 0.00 0.00 0.00 77 1022.1
20260503080535 56 360 1.0 2.0 0.00 0.00 0.00 77 1022.1
20260503080455 56 360 1.0 2.0 0.00 0.00 0.00 77 1022.2
20260503080355 56 360 1.0 2.0 0.00 0.00 0.00 77 1022.2
20260503080254 56 360 2.0 2.0 0.00 0.00 0.00 77 1022.2
20260503080118 56 360 2.0 2.0 0.00 0.00 0.00 77 1022.2
20260503072828 57 138 1.0 2.0 0.00 0.00 0.00 75 1022.5
20260503072729 57 138 1.0 2.0 0.00 0.00 0.00 75 1022.6
20260503072629 57 139 1.0 2.0 0.00 0.00 0.00 75 1022.5
20260503072550 57 360 1.0 2.0 0.00 0.00 0.00 75 1022.7
20260503072430 57 360 1.0 2.0 0.00 0.00 0.00 75 1022.6
20260503072330 57 360 1.0 2.0 0.00 0.00 0.00 76 1022.7
20260503072251 57 360 1.0 2.0 0.00 0.00 0.00 76 1022.7
20260503072135 57 360 1.0 2.0 0.00 0.00 0.00 76 1022.7
20260503072016 57 360 1.0 2.0 0.00 0.00 0.00 75 1022.7
20260503071916 57 360 1.0 2.0 0.00 0.00 0.00 75 1022.7
20260503071817 57 360 1.0 2.0 0.00 0.00 0.00 75 1022.7
20260503071718 57 360 1.0 2.0 0.00 0.00 0.00 75 1022.7
20260503071619 57 360 1.0 2.0 0.00 0.00 0.00 75 1022.7
20260503071541 57 360 1.0 2.0 0.00 0.00 0.00 74 1022.6
20260503071425 57 360 1.0 2.0 0.00 0.00 0.00 74 1022.6
20260503071325 57 360 1.0 2.0 0.00 0.00 0.00 74 1022.6
20260503071225 57 360 1.0 2.0 0.00 0.00 0.00 74 1022.5
20260503071127 57 360 1.0 2.0 0.00 0.00 0.00 74 1022.5
20260503071028 57 360 1.0 2.0 0.00 0.00 0.00 74 1022.4
20260503070928 57 360 1.0 2.0 0.00 0.00 0.00 74 1022.4
20260503070833 57 360 1.0 2.0 0.00 0.00 0.00 74 1022.4
20260503070734 57 360 1.0 2.0 0.00 0.00 0.00 74 1022.5
20260503070635 57 360 1.0 2.0 0.00 0.00 0.00 74 1022.5
20260503070535 57 360 1.0 2.0 0.00 0.00 0.00 74 1022.5
20260503070417 57 360 1.0 2.0 0.00 0.00 0.00 74 1022.5
20260503070317 57 360 1.0 2.0 0.00 0.00 0.00 75 1022.6
20260503070222 57 360 1.0 2.0 0.00 0.00 0.00 75 1022.5
20260503070143 57 360 1.0 2.0 0.00 0.00 0.00 75 1022.5